Ypsilanti, MI

12:21 PM EDT on July 23, 2016 (GMT -0400)
Willow Run

Weather History for KYIP - November, 2013

Change the Weather History Date:

Thursday, November 28, 2013

  Actual Average Record
Temperature  
Mean Temperature 26 °F -  
Max Temperature 30 °F 42 °F 68 °F (1990)
Min Temperature 21 °F 30 °F 15 °F (2007)
Degree Days  
Heating Degree Days 40    
Moisture  
Dew Point 15 °F    
Average Humidity 66    
Maximum Humidity 78    
Minimum Humidity 50    
Precipitation  
Precipitation 0.00 in - - ()
Sea Level Pressure  
Sea Level Pressure 30.32 in    
Wind  
Wind Speed 7 mph (SSW)    
Max Wind Speed 14 mph    
Max Gust Speed -    
Visibility 8 miles    
Events Snow    
Averages and records for this station are not official NWS values.
T = Trace of Precipitation, MM = Missing Value Source: NWS Daily Summary

Daily Weather History Graph

Daily Weather History Graph

Search for Another Location

Airport or City:

Trip Planner

Search our weather history database for the weather conditions in past years. The results will help you decide how hot, cold, wet, or windy it might be!

Date:

Astronomy

Nov. 28, 2013 Rise Set
Actual Time 7:40 AM EST 5:03 PM EST
Civil Twilight 7:09 AM EST 5:34 PM EST
Nautical Twilight 6:34 AM EST 6:09 PM EST
Astronomical Twilight 6:00 AM EST 6:43 PM EST
Moon 2:36 AM EST (11/28) 2:17 PM EST (11/28)
Length of Visible Light 10h 25m
Length of Day
9h 23m
Waning Crescent, 22% of the Moon is Illuminated
Nov 28
Waning Crescent
Dec 2
New
Dec 9
First Quarter
Dec 17
Full
Dec 25
Last Quarter

Hourly Weather History & Observations

Time (EST) Temp. Windchill Dew Point Humidity Pressure Visibility Wind Dir Wind Speed Gust Speed Precip Events Conditions
12:53 AM 21.0 °F 9.9 °F 10.0 °F 63% 30.22 in 10.0 mi WNW 10.4 mph - N/A   Scattered Clouds
1:53 AM 21.0 °F 10.6 °F 10.0 °F 63% 30.23 in 10.0 mi West 9.2 mph - N/A   Clear
2:53 AM 21.0 °F 12.4 °F 10.9 °F 65% 30.25 in 10.0 mi WNW 6.9 mph - N/A   Clear
3:53 AM 23.0 °F 14.7 °F 10.9 °F 60% 30.27 in 10.0 mi West 6.9 mph - N/A   Mostly Cloudy
4:53 AM 23.0 °F 13.9 °F 12.0 °F 63% 30.28 in 10.0 mi WSW 8.1 mph - N/A   Overcast
5:53 AM 24.1 °F 18.2 °F 12.0 °F 60% 30.30 in 10.0 mi WSW 4.6 mph - N/A   Overcast
6:53 AM 24.1 °F - 15.1 °F 69% 30.32 in 3.0 mi Calm Calm - 0.00 in Snow Light Snow
7:03 AM 23.0 °F - 15.8 °F 74% 30.30 in 2.0 mi Calm Calm - 0.00 in Snow Light Snow
7:18 AM 23.0 °F 18.4 °F 15.8 °F 74% 30.30 in 3.0 mi South 3.5 mph - 0.00 in Snow Light Snow
7:53 AM 23.0 °F 17.0 °F 17.1 °F 78% 30.34 in 4.0 mi South 4.6 mph - 0.00 in Snow Light Snow
8:23 AM 24.8 °F 19.1 °F 17.6 °F 74% 30.32 in 1.8 mi South 4.6 mph - 0.00 in Snow Light Snow
8:44 AM 24.8 °F 19.1 °F 17.6 °F 74% 30.32 in 1.2 mi SSE 4.6 mph - 0.00 in Snow Light Snow
8:53 AM 24.1 °F 18.2 °F 18.0 °F 77% 30.35 in 1.2 mi SSE 4.6 mph - 0.00 in Snow Light Snow
9:02 AM 24.8 °F 17.9 °F 17.6 °F 74% 30.32 in 2.0 mi ESE 5.8 mph - 0.00 in Snow Light Snow
9:12 AM 24.8 °F 19.1 °F 17.6 °F 74% 30.32 in 6.0 mi SSE 4.6 mph - 0.00 in Snow Light Snow
9:53 AM 25.0 °F 17.1 °F 18.0 °F 75% 30.34 in 10.0 mi SSE 6.9 mph - 0.00 in   Overcast
10:38 AM 26.6 °F 18.2 °F 19.4 °F 74% 30.31 in 10.0 mi South 8.1 mph - N/A   Overcast
10:53 AM 27.0 °F 19.5 °F 19.0 °F 72% 30.34 in 10.0 mi South 6.9 mph - N/A   Overcast
11:45 AM 28.4 °F 20.4 °F 19.4 °F 69% 30.28 in 10.0 mi South 8.1 mph - N/A   Overcast
11:53 AM 28.9 °F 20.4 °F 19.9 °F 69% 30.30 in 10.0 mi SSE 9.2 mph - N/A   Overcast
12:53 PM 30.0 °F 20.5 °F 19.0 °F 64% 30.27 in 10.0 mi SSW 11.5 mph - N/A   Overcast
1:53 PM 30.9 °F 20.7 °F 15.1 °F 52% 30.27 in 10.0 mi SW 13.8 mph - N/A   Overcast
2:53 PM 30.9 °F 21.2 °F 14.0 °F 50% 30.26 in 10.0 mi SW 12.7 mph - N/A   Overcast
3:53 PM 30.0 °F 22.4 °F 14.0 °F 51% 30.29 in 10.0 mi SW 8.1 mph - N/A   Overcast
4:53 PM 30.0 °F 21.7 °F 14.0 °F 51% 30.31 in 10.0 mi SW 9.2 mph - N/A   Overcast
5:53 PM 28.9 °F 21.9 °F 15.1 °F 56% 30.35 in 10.0 mi SW 6.9 mph - N/A   Overcast
6:53 PM 28.9 °F 22.8 °F 15.1 °F 56% 30.37 in 10.0 mi SSW 5.8 mph - N/A   Overcast
7:53 PM 28.0 °F 24.2 °F 15.1 °F 58% 30.38 in 10.0 mi SW 3.5 mph - N/A   Overcast
8:53 PM 28.0 °F 24.2 °F 15.1 °F 58% 30.39 in 10.0 mi SW 3.5 mph - N/A   Clear
9:53 PM 23.0 °F - 14.0 °F 68% 30.40 in 10.0 mi Calm Calm - N/A   Clear
10:53 PM 21.0 °F - 14.0 °F 74% 30.42 in 10.0 mi Calm Calm - N/A   Clear
11:53 PM 21.9 °F - 14.0 °F 72% 30.43 in 10.0 mi Calm Calm - N/A   Scattered Clouds